Lid_Strength_Index
2 2 2 2 2 2 2 2 2 2 2 2 2 3 3 3 3 4 9 5 3 -2 -1 2 5 6 7 7 7 9 13 14 12 10 9 6 8 6 5 5 5 4 4 3 3
2 2 2 2 2 2 2 2 2 2 2 2 2 3 3 3 6 7 2 -2 -2 -3 6 6 7 7 9 9 9 11 13 12 9 7 8 7 7 6 6 6 6 5 3 2 2
3 2 2 2 2 2 2 2 2 2 2 2 2 2 3 3 6 4 -3 -2 -4 -2 6 5 7 8 10 11 11 11 11 10 8 7 5 7 8 6 6 8 6 6 5 3 3
3 3 3 3 3 2 2 2 3 2 2 3 2 2 2 5 10 5 -2 -3 -3 4 8 8 9 11 12 12 11 12 10 9 7 6 6 8 7 6 6 6 4 4 3 3 3
3 3 3 3 3 3 3 3 3 3 3 3 2 2 5 7 8 1 -2 -2 3 6 8 8 9 10 13 12 12 12 10 9 7 7 8 6 7 7 6 4 3 3 3 4 3
3 3 3 3 3 3 3 3 3 3 3 2 1 2 6 11 4 -0 3 5 7 7 7 8 8 9 11 12 13 11 11 10 9 9 9 8 7 6 6 4 4 4 4 4 3
3 3 3 3 3 3 3 3 3 3 3 2 1 2 5 8 4 3 6 7 7 6 6 6 7 8 11 11 11 10 12 10 10 9 9 8 8 9 5 4 5 5 4 4 4
3 3 3 3 3 3 3 3 3 3 2 1 1 3 7 2 5 5 7 7 6 7 6 5 7 8 10 10 10 12 13 13 10 9 8 8 11 7 5 5 6 5 4 4 4
3 4 4 4 3 3 3 4 3 2 1 1 3 5 6 3 5 5 6 6 6 6 6 4 8 9 9 12 13 13 14 13 11 10 9 10 11 8 5 5 6 5 5 4 4
3 4 4 4 3 3 4 4 3 2 1 1 1 6 5 5 4 4 5 5 6 7 8 9 10 11 13 14 16 14 14 14 13 10 10 11 10 9 5 6 6 5 5 5 5
3 4 4 4 4 4 5 6 7 7 5 5 5 5 4 2 3 5 4 5 6 8 12 11 13 14 12 11 10 12 13 13 11 9 11 12 12 11 8 7 7 5 6 6 6
4 4 4 4 4 4 6 5 5 5 8 4 4 3 2 3 5 5 4 7 9 11 11 12 13 11 10 10 10 11 12 12 11 9 11 11 12 11 11 10 9 8 5 5 5
4 4 4 4 4 5 5 4 2 5 9 7 5 5 5 4 5 6 5 7 10 12 12 13 11 8 9 10 10 12 12 12 11 11 11 12 12 12 9 9 9 8 7 5 5
4 4 4 4 5 6 5 3 4 5 11 8 6 5 5 6 8 4 5 7 10 11 12 12 10 9 10 10 10 13 10 9 10 12 15 11 15 13 11 9 9 8 6 6 5
4 4 4 5 8 6 4 4 3 5 15 7 7 4 6 7 7 6 4 6 9 9 10 10 9 11 10 10 9 11 9 10 9 13 14 12 14 13 11 11 10 7 6 6 5
4 4 5 5 7 5 4 4 5 10 15 8 8 8 9 8 7 6 6 6 6 8 9 9 7 8 9 8 8 8 9 11 12 14 16 14 14 15 11 10 8 7 6 5 5
5 5 5 5 7 5 5 5 11 15 8 9 9 8 9 9 8 7 8 9 11 12 12 10 9 8 8 10 9 10 13 16 16 16 17 13 13 14 9 8 7 7 6 5 5
5 5 6 5 6 5 5 8 16 10 9 7 8 8 10 9 9 7 8 10 9 10 12 13 13 9 8 10 11 11 12 15 18 17 16 12 15 13 8 7 7 7 7 7 6
6 7 6 4 4 5 7 13 13 10 7 8 8 10 10 8 8 9 9 9 8 9 12 12 11 7 8 8 9 11 13 11 14 15 16 14 13 9 8 7 7 7 7 7 6
9 8 7 3 3 5 9 12 10 6 6 7 10 8 11 9 10 10 10 8 8 7 8 10 13 8 7 8 9 10 9 13 15 17 18 15 14 15 11 9 8 8 8 8 7
8 8 6 3 3 7 12 11 8 5 5 8 9 9 9 10 9 11 10 7 6 7 7 9 11 11 9 10 11 11 12 12 13 14 17 17 16 10 10 8 8 7 7 8 7
10 11 5 4 8 9 11 8 7 6 5 7 7 7 8 8 9 10 9 8 6 6 9 9 12 12 11 8 7 10 11 12 14 15 14 15 15 9 8 8 8 8 9 9 7
12 10 5 5 11 11 8 7 7 7 7 7 7 7 7 9 11 9 8 6 6 7 9 9 12 14 13 12 9 10 10 10 12 13 14 15 15 8 8 9 9 10 10 9 9
11 11 7 7 8 10 10 9 9 6 7 7 7 7 8 9 9 10 9 6 6 7 5 7 11 13 14 13 11 11 10 10 12 14 14 13 14 12 11 12 11 11 10 10 10
10 10 8 10 9 9 9 9 10 9 7 7 9 8 9 12 11 11 9 8 7 6 7 9 13 12 11 10 10 10 10 11 13 12 14 13 13 13 13 13 11 11 10 10 10
9 10 9 9 9 10 10 11 9 8 9 8 9 8 8 11 10 11 10 10 10 8 10 9 13 12 12 10 10 11 10 10 11 12 13 12 13 12 12 11 11 10 10 10 9
7 7 9 10 10 11 11 9 9 8 6 6 7 8 9 8 8 9 9 9 10 10 10 10 12 13 15 11 11 13 11 10 10 10 11 14 13 12 12 11 11 10 9 8 7